Weather in Kotelniki

Russia / Moscow Oblast     55°39′35″N   37°51′47″E
temp.,
°C
wind,
m/s
gust,
m/s
humid.,
%
clouds,
%
prec.,
mm/h
press.,
hPa
HPBL,
m
22 may, sun
sun2200:00+7ene4106646 0.0 1006446
03:00+5ene4116411 0.0 1006422
06:00+5ne596699 0.0 1005411
09:00+8ne56485 0.0 10051012
12:00+10ne56325 0.0 10041677
15:00+11nne56295 0.0 10041984
18:00+11nne563578 0.0 10042046
21:00+6ne475872 0.0 1006943
23 may, mon
mon2300:00+3nne236815 0.0 1007294
03:00+3nnw366982 0.0 1007274
06:00+3nw49637 0.0 1007430
09:00+8nnw584617 0.0 10061495
12:00+11nnw573799 0.0 10051733
15:00+13nw683286 0.0 10042165
18:00+12nw6929100 0.0 10042104
21:00+10nw4938100 0.0 10041248
24 may, tue
tue2400:00+8nw4946100 0.0 1004791
03:00+6nw4955100 0.0 1005595
06:00+6nw51158100 0.0 10051327
09:00+4nnw5879100 0.3 1007968
12:00+6nnw5757100 0.2 10081563
15:00+7nnw5656100 0.3 10091443
18:00+7nnw465695 0.1 10111305
21:00+6nnw366996 0.3 1013738
25 may, wed
wed2500:00+5nnw357790 0.0 1014488
03:00+3nnw248672 0.0 1015200
06:00+4nnw247885 0.0 1016263
09:00+7nnw345289 0.1 10161535
12:00+10nw334282 0.0 10161698
15:00+13nw343595 0.0 10152054
18:00+13wnw444199 0.0 10141790
21:00+9wnw356372 0.0 1014376
26 may, thu
thu2600:00+7wsw247765 0.0 1014141
03:00+6wsw238481 0.0 1013118
06:00+7sw127666 0.0 1011127
09:00+12s34585 0.0 1008552
12:00+16s445630 0.0 1006896
15:00+16s4565100 0.0 1003525
18:00+13s2594100 1.9 1000278
21:00+12se2398100 4.6 998194